Location: Appeville
(49.3218°N, 1.3427°W)
Time: 19:52:46
(UTC+00:00)

Cosmos 1500 - Pass Details

Date: 08 December 2019
Orbit: 499 x 520 km, 82.5° (Epoch: 24 January)

Event Time Altitude Azimuth Distance (km) Brightness Sun altitude
Rises 06:54:30 0° 194° (SSW) 2,634 7.0 -8.2°
Reaches altitude 10° 06:56:39 10° 196° (SSW) 1,750 6.0 -7.9°
Maximum altitude 07:00:29 70° 281° (W) 556 3.1 -7.4°
Drops below altitude 10° 07:04:19 10° 6° (N) 1,757 5.7 -6.8°
Sets 07:06:28 0° 8° (N) 2,646 6.6 -6.5°
